Regional Weather Roundup
Issued by NWS

Home | Current Version | Previous Version | Text Only | Print | Product List | Glossary On
Versions: 1 2 3 4 5 6 7 8 9 10 11 12 13 14 15 16 17 18 19 20 21 22 23 24 25 26 27 28 29 30 31 32 33 34 35 36 37 38 39 40 41 42 43 44 45 46 47 48 49 50
000
ASUS45 KBOU 170610
RWRCO

WEATHER ROUNDUP FOR COLORADO
NATIONAL WEATHER SERVICE DENVER/BOULDER CO
1100 PM MST SAT DEC 16 2017

NOTE: "FAIR" INDICATES FEW OR NO CLOUDS BELOW 12000 FEET WITH NO
SIGNIFICANT WEATHER AND/OR OBSTRUCTIONS TO VISIBILITY.

COZ001>005-013-030-031-170700-
...NORTHWEST COLORADO...

CITY           SKY/WX    TMP DP  RH WIND       PRES   REMARKS
CRAIG          FAIR      15  10  80 CALM      29.88R
HAYDEN         FAIR      19  13  77 CALM      29.89R
MEEKER         FAIR      22  12  65 CALM      29.88R
RABBIT EARS PA FAIR      19   0  42 W9        29.86R WCI   9
STEAMBOAT SPGS FAIR      21  14  73 CALM      29.86R
WALDEN         FAIR       9   5  85 SE7       29.87R WCI  -3
$$

COZ006>008-011-170700-
...WEST CENTRAL VALLEYS...

CITY           SKY/WX    TMP DP  RH WIND       PRES   REMARKS
GRAND JUNCTION FAIR      23   6  48 CALM      29.90R
MONTROSE       FAIR      26   8  46 SE7       29.92R WCI  18
EAGLE          FAIR      18  11  74 CALM      29.91R
RIFLE          FAIR      24   9  52 CALM      29.90R
DELTA          FAIR      30   5  34 CALM      29.90R
NUCLA          FAIR      30  -4  22 E6        29.92R WCI  24
$$

COZ017>023-064>068-170700-
...SOUTHWEST COLORADO...

CITY           SKY/WX    TMP DP  RH WIND       PRES   REMARKS
DURANGO        CLOUDY    28   9  44 E6        29.87R WCI  22
CORTEZ         FAIR      26   9  48 NE3       29.88R
PAGOSA SPRINGS FAIR      26   3  37 CALM      29.88R
TELLURIDE      MOCLDY    30  -4  23 N3        29.90R
WOLF CREEK PAS CLOUDY    23   1  39 SW8       29.97S WCI  14
$$

COZ009-010-012-014-032>034-037-058>063-170700-
...CENTRAL COLORADO...

CITY           SKY/WX    TMP DP  RH WIND       PRES   REMARKS
ASPEN          MOCLDY    20  11  68 S5        29.84R WCI  13
BUENA VISTA    FAIR      17  10  74 W5        29.88S WCI  10
COPPER MTN     NOT AVBL
BERTHOUD PASS  FAIR      19   7  58 SW10G21   29.90R WCI   8
COTTONWOOD PAS FAIR      32   9  37 CALM      29.89S
GUNNISON       FAIR      18  10  71 CALM      29.89R
KREMMLING      FAIR      14   9  79 CALM      29.88R
LEADVILLE      FAIR      18   5  57 NE3       29.87R
MONARCH PASS   FAIR      21   0  39 W17       30.01R WCI   7
SALIDA         FAIR      28   8  44 S7        29.96R WCI  20
SUNLIGHT       MOCLDY    19  -6  32 W6        29.93R WCI  11
WILKERSON PASS FAIR      19   1  45 W6        29.92R WCI  11
$$

COZ069>075-170700-
...SAN LUIS VALLEY/SANGRE DE CRISTO MOUNTAINS...

CITY           SKY/WX    TMP DP  RH WIND       PRES   REMARKS
ALAMOSA        FAIR      12   9  87 CALM      29.85R
DEL NORTE      FAIR      19   7  61 W10       29.86R WCI   7
LA VETA PASS   FAIR      21   9  58 SW10        N/A  WCI  10
SAGUACHE       FAIR      19   9  63 NW8       29.86R WCI   9
$$

COZ035-036-038>040-170700-
...NORTHERN COLORADO FRONT RANGE...

CITY           SKY/WX    TMP DP  RH WIND       PRES   REMARKS
DENVER INTL AP CLOUDY    29  25  85 E6        29.94S WCI  23
DMNS CITY PARK NOT AVBL
AURORA         CLOUDY    28  27  93 E3        29.93S
FRONT RANGE AP CLOUDY    31  29  92 E5        29.95R WCI  26
ERIE MUNI ARPT CLOUDY    32  27  81 E6        30.00S WCI  26
BOULDER MUN AP CLOUDY    32  27  80 NE6       29.94S WCI  26
CENTENNIAL     CLOUDY    28  25  88 E5        29.92S WCI  23
BROOMFIELD     CLOUDY    32  27  80 NE6       29.93F WCI  26
FORT COLLINS   CLOUDY    32  27  81 N5        29.97R WCI  27
LONGMONT       CLOUDY    34  28  77 E5        29.98R WCI  30
$$

COZ041-046-047-076>085-087-088-170700-
...PIKES PEAK/PALMER DIVIDE AND SOUTHERN FOOTHILLS...

CITY           SKY/WX    TMP DP  RH WIND       PRES   REMARKS
COLO. SPRINGS  MOCLDY    31  22  69 N12       29.90R WCI  22
A. F. ACADEMY  FAIR      28  19  67 NW8       29.89R WCI  20
SCHRIEVER AFB  MOCLDY    27  22  80 NE8       29.89S WCI  19
CHEYENNE MTN   MOCLDY    29  19  66 CALM      29.84R
ELLICOTT         N/A    N/A N/A N/A N9        29.88R
FALCON         FAIR      26  21  80 N6        29.90R WCI  20
FORT CARSON    CLOUDY    30  20  67 N6        29.89R WCI  24
LIMON          CLOUDY    27  27 100 NE14      29.90R WCI  16
MONUMENT HILL  CLOUDY    23  23 100 CALM      29.91R
CANON CITY     FAIR      32  18  55 CALM      29.89S
WALSENBURG     FAIR      23  14  68 SW6       29.90S WCI  16
TRINIDAD       FAIR      25  14  63 NW8       29.90R WCI  16
$$

COZ042>045-048>051-090-091-170700-
...NORTHEAST COLORADO...

CITY           SKY/WX    TMP DP  RH WIND       PRES   REMARKS
GREELEY ARPT   CLOUDY    32  27  81 CALM      29.98R
AKRON          CLOUDY    30  28  92 NE13      29.94S FOG     WCI  20
BURLINGTON     CLOUDY    31  29  92 N18G28    29.90S WCI  19
WRAY           CLOUDY    34  32  93 N9        29.95F WCI  26
YUMA           CLOUDY    32  30  93 NE12      29.95S WCI  23
STERLING       CLOUDY    32  32 100 NE7       29.96S FOG     WCI  26
HOLYOKE        CLOUDY    36  32  87 NE13      29.98R
FORT MORGAN    CLOUDY    32  28  88 NE12      29.96R WCI  23
$$

COZ086-089-092>099-170700-
...SOUTHEAST COLORADO...

CITY           SKY/WX    TMP DP  RH WIND       PRES   REMARKS
PUEBLO         FAIR      26  14  60 N7        29.91R WCI  18
LA JUNTA       FAIR      32  25  75 N16       29.88R WCI  21
LAMAR          FAIR      32  25  75 N14       29.83R WCI  22
SPRINGFIELD      N/A     28  17  63 NW21      29.78R WCI  15
$$



USA.gov is the U.S. government's official web portal to all federal, state and local government web resources and services.